Flag for Papua New Guinea Weather past 2 weeks in Lae, Papua New Guinea

Now
72 °F

Passing clouds.


Feels Like: 71 °F
Forecast: 67 / 84 °F
Wind: No wind

Location: Moresby

Current Time: Jul 25, 2014 at 12:39:56 AM

Latest Report: Jul 24, 2014 at 11:00 PM


Visibility: N/A

Pressure: 29.89 "Hg

Humidity: 83%

Dew point: 66 °F

Location of LaeLocation

Historic Weather in Lae — Graph

°F

Lae temperature yesterday

Maximum temperature yesterday: 84 °F (at 11:00 AM)
Minimum temperature yesterday: 70 °F (at 5:00 AM)
Average temperature yesterday: 77 °F

Past Weeks' High & Low Weather Summary

 TemperatureHumidityPressure
High90 °F (Jul 15, 1:00 PM)94% (Jul 10, 5:00 PM)29.95 "Hg (Jul 10, 5:00 PM)
Low70 °F (Jul 19, 6:00 AM)32% (Jul 23, 3:00 PM)29.71 "Hg (Jul 15, 4:00 PM)
Average78 °F74%29.85 "Hg
* Reported Jul 9 11:00 PM — Jul 24 11:00 PM, Lae, Weather by CustomWeather, © 2014

Note: Actual official high and low records may vary slightly from our data, if they occured in-between our weather recording intervals... More about our weather records

Advertising

Lae weather history for previous 24 hours

 ConditionsComfort  
Time TempWeatherWind HumidityBarometerVisibility
11:00 PM
Jul 24
72 °FPassing clouds.No wind83%29.89 "HgN/A
10:00 PM73 °FPassing clouds.5 mph83%29.89 "HgN/A
9:00 PM75 °FPassing clouds.7 mph74%29.89 "HgN/A
8:00 PM77 °FPassing clouds.9 mph69%29.89 "HgN/A
7:00 PM77 °FPassing clouds.9 mph69%29.86 "HgN/A
5:00 PM81 °FBroken clouds.9 mph58%29.80 "HgN/A
4:00 PM81 °FBroken clouds.9 mph58%29.80 "HgN/A
3:00 PM81 °FBroken clouds.15 mph62%29.80 "HgN/A
2:00 PM84 °FPartly sunny.9 mph55%29.83 "HgN/A
12:00 PM82 °FBroken clouds.9 mph55%29.86 "HgN/A
11:00 AM84 °FPartly sunny.6 mph51%29.89 "HgN/A
10:00 AM81 °FPartly sunny.9 mph58%29.89 "HgN/A
9:00 AM77 °FScattered clouds.12 mph65%29.89 "HgN/A
8:00 AM75 °FPartly sunny.14 mph69%29.86 "HgN/A
7:00 AM73 °FPartly sunny.9 mph74%29.86 "HgN/A
6:00 AM72 °FMild.N/A73%29.80 "HgN/A
5:00 AM70 °FPassing clouds.No wind83%29.80 "HgN/A
4:00 AM72 °FClear.No wind78%29.80 "Hg10 mi
2:00 AM73 °FClear.6 mph78%29.83 "Hg10 mi
12:00 AM73 °FClear.12 mph78%29.83 "Hg10 mi
Weather by CustomWeather, © 2014

See weather overviewHow to use our weather pages